Location: L�beck
(53.8752°N, 10.6787°E)
Time: 18:51:55
(UTC+02:00)

ISS - Visible Passes

Search period start: 26 March 2017 00:00
Search period end: 05 April 2017 01:00
Orbit: 399 x 409 km, 51.6° (Epoch: 27 March)

Date Brightness Start Highest point End Pass type
(mag) Time Alt. Az. Time Alt. Az. Time Alt. Az.
28 Mar -1.8 21:00:34 10° S 21:01:52 13° SSE 21:01:52 13° SSE visible
29 Mar -2.5 21:42:57 10° SW 21:45:00 26° S 21:45:00 26° S visible
30 Mar -2.4 20:51:01 10° SSW 20:53:37 22° SSE 20:55:12 16° ESE visible
30 Mar -1.9 22:26:28 10° WSW 22:27:52 23° WSW 22:27:52 23° WSW visible
31 Mar -3.4 21:34:12 10° WSW 21:37:18 43° SSE 21:37:53 38° SE visible
31 Mar -0.8 23:10:20 10° W 23:10:33 11° W 23:10:33 11° W visible
01 Apr -3.0 20:42:00 10° SW 20:44:59 33° SSE 20:47:46 11° E visible
01 Apr -3.1 22:17:57 10° WSW 22:20:25 44° SW 22:20:25 44° SW visible
02 Apr -3.7 21:25:34 10° WSW 21:28:46 54° S 21:30:11 29° ESE visible
02 Apr -1.4 23:01:51 10° W 23:02:50 18° W 23:02:50 18° W visible
03 Apr -3.4 20:33:13 10° WSW 20:36:22 46° SSE 20:39:32 10° E visible
03 Apr -3.6 22:09:25 10° W 22:12:30 55° SSW 22:12:30 55° SSW visible
04 Apr -3.7 21:16:58 10° W 21:20:12 59° S 21:22:07 22° ESE visible
04 Apr -1.7 22:53:22 10° W 22:54:46 21° WSW 22:54:46 21° WSW visible
